Location: Minneapolis
(45.0000°N, 93.0000°W)
Time: 22:39:35
(UTC-05:00)

Envisat - Pass Details

Date: 11 March 2018
Orbit: 764 x 766 km, 98.2° (Epoch: 21 June)

Event Time Altitude Azimuth Distance (km) Brightness Sun altitude
Rises 21:05:18 0° 182° (S) 3,214 6.1 -20.5°
Reaches altitude 10° 21:07:41 10° 188° (S) 2,292 5.4 -20.9°
Maximum altitude 21:12:31 45° 261° (W) 1,029 4.0 -21.7°
Drops below altitude 10° 21:17:24 10° 335° (NNW) 2,309 6.0 -22.5°
Sets 21:19:49 0° 341° (NNW) 3,240 6.8 -22.9°
